Back to catalog

STARLINK-5933

AliveCommunicationsVLEO
NORAD 55961·PAYLOAD·🇺🇸 United States

Launched Mar 17, 2023 from Vandenberg Space Force Base

Loading…

Next Passes (next 24 hours)

TLE

FreshSource: CelesTrak SupGP

Epoch: Sep 14, 2026, 13:22 UTC

1 55961C 23037AZ  26257.55743056  .00067855  00000+0  56885-2 0  2579
2 55961  70.0008 148.1670 0002811 268.2067 174.6182 14.98283689    11

Track STARLINK-5933 in real time with AllMySat

Download on the App Store